Time,TemperatureF,DewpointF,PressureIn,WindDirection,WindDirectionDegrees,WindSpeedMPH,WindSpeedGustMPH,Humidity,HourlyPrecipIn,Conditions,Clouds,dailyrainin,SolarRadiationWatts/m^2,SoftwareType,DateUTC
2013-01-06 14:22:00,32.0,-4.0,-100.00,South,186,9.0,13.0,20,0.00,,,0.00,414.000000,,2013-01-06 21:22:00,
2013-01-06 14:33:00,32.0,-4.0,-100.00,South,186,9.0,13.0,20,0.00,,,0.00,414.000000,,2013-01-06 21:33:00,
2013-01-06 14:42:00,32.0,-4.0,-100.00,South,186,9.0,13.0,20,0.00,,,0.00,414.000000,,2013-01-06 21:42:00,
2013-01-06 14:52:00,32.0,-4.0,-100.00,South,186,9.0,13.0,20,0.00,,,0.00,414.000000,,2013-01-06 21:52:00,
2013-01-06 15:12:00,30.0,-5.0,-100.00,South,188,8.0,11.0,21,0.00,,,0.00,296.000000,,2013-01-06 22:12:00,
2013-01-06 15:22:00,30.0,-5.0,-100.00,South,188,8.0,11.0,21,0.00,,,0.00,296.000000,,2013-01-06 22:22:00,
2013-01-06 15:33:00,30.0,-5.0,-100.00,South,188,8.0,11.0,21,0.00,,,0.00,296.000000,,2013-01-06 22:33:00,
2013-01-06 15:43:00,30.0,-5.0,-100.00,South,188,8.0,11.0,21,0.00,,,0.00,296.000000,,2013-01-06 22:43:00,
2013-01-06 15:52:00,30.0,-5.0,-100.00,South,188,8.0,11.0,21,0.00,,,0.00,296.000000,,2013-01-06 22:52:00,
2013-01-06 16:12:00,28.0,-5.0,-100.00,South,181,6.0,11.0,23,0.00,,,0.00,186.000000,,2013-01-06 23:12:00,
2013-01-06 16:22:00,28.0,-5.0,-100.00,South,181,6.0,11.0,23,0.00,,,0.00,186.000000,,2013-01-06 23:22:00,
2013-01-06 16:33:00,28.0,-5.0,-100.00,South,181,6.0,11.0,23,0.00,,,0.00,186.000000,,2013-01-06 23:33:00,
2013-01-06 16:42:00,28.0,-5.0,-100.00,South,181,6.0,11.0,23,0.00,,,0.00,186.000000,,2013-01-06 23:42:00,
2013-01-06 16:52:00,28.0,-5.0,-100.00,South,181,6.0,11.0,23,0.00,,,0.00,186.000000,,2013-01-06 23:52:00,
2013-01-06 17:23:00,25.0,-6.0,-100.00,SSE,160,5.0,11.0,25,0.00,,,0.00,39.000000,,2013-01-07 00:23:00,
2013-01-06 17:33:00,25.0,-6.0,-100.00,SSE,160,5.0,11.0,25,0.00,,,0.00,39.000000,,2013-01-07 00:33:00,
2013-01-06 17:42:00,25.0,-6.0,-100.00,SSE,160,5.0,11.0,25,0.00,,,0.00,39.000000,,2013-01-07 00:42:00,
2013-01-06 17:52:00,25.0,-6.0,-100.00,SSE,160,5.0,11.0,25,0.00,,,0.00,39.000000,,2013-01-07 00:52:00,
2013-01-06 18:23:00,26.0,-6.0,-100.00,South,169,9.0,13.0,24,0.00,,,0.00,0.000000,,2013-01-07 01:23:00,
2013-01-06 18:32:00,26.0,-6.0,-100.00,South,169,9.0,13.0,24,0.00,,,0.00,0.000000,,2013-01-07 01:32:00,
2013-01-06 18:42:00,26.0,-6.0,-100.00,South,169,9.0,13.0,24,0.00,,,0.00,0.000000,,2013-01-07 01:42:00,
2013-01-06 18:52:00,26.0,-6.0,-100.00,South,169,9.0,13.0,24,0.00,,,0.00,0.000000,,2013-01-07 01:52:00,
2013-01-06 19:22:00,24.0,-6.0,-100.00,SSE,155,6.0,9.0,26,0.00,,,0.00,0.000000,,2013-01-07 02:22:00,
2013-01-06 19:32:00,24.0,-6.0,-100.00,SSE,155,6.0,9.0,26,0.00,,,0.00,0.000000,,2013-01-07 02:32:00,
2013-01-06 19:42:00,24.0,-6.0,-100.00,SSE,155,6.0,9.0,26,0.00,,,0.00,0.000000,,2013-01-07 02:42:00,
2013-01-06 19:52:00,24.0,-6.0,-100.00,SSE,155,6.0,9.0,26,0.00,,,0.00,0.000000,,2013-01-07 02:52:00,
2013-01-06 20:22:00,23.0,-6.0,-100.00,South,175,3.0,8.0,27,0.00,,,0.00,0.000000,,2013-01-07 03:22:00,
2013-01-06 20:33:00,23.0,-6.0,-100.00,South,175,3.0,8.0,27,0.00,,,0.00,0.000000,,2013-01-07 03:33:00,
2013-01-06 20:43:00,23.0,-6.0,-100.00,South,175,3.0,8.0,27,0.00,,,0.00,0.000000,,2013-01-07 03:43:00,
2013-01-06 20:52:00,23.0,-6.0,-100.00,South,175,3.0,8.0,27,0.00,,,0.00,0.000000,,2013-01-07 03:52:00,
2013-01-06 21:12:00,24.0,-7.0,-100.00,South,172,4.0,7.0,25,0.00,,,0.00,0.000000,,2013-01-07 04:12:00,
2013-01-06 21:22:00,24.0,-7.0,-100.00,South,172,4.0,7.0,25,0.00,,,0.00,0.000000,,2013-01-07 04:22:00,
2013-01-06 21:32:00,24.0,-7.0,-100.00,South,172,4.0,7.0,25,0.00,,,0.00,0.000000,,2013-01-07 04:32:00,
2013-01-06 21:42:00,24.0,-7.0,-100.00,South,172,4.0,7.0,25,0.00,,,0.00,0.000000,,2013-01-07 04:42:00,
2013-01-06 21:52:00,24.0,-7.0,-100.00,South,172,4.0,7.0,25,0.00,,,0.00,0.000000,,2013-01-07 04:52:00,
2013-01-06 22:12:00,22.0,-5.0,-100.00,South,171,6.0,8.0,29,0.00,,,0.00,0.000000,,2013-01-07 05:12:00,
2013-01-06 22:22:00,22.0,-5.0,-100.00,South,171,6.0,8.0,29,0.00,,,0.00,0.000000,,2013-01-07 05:22:00,
2013-01-06 22:33:00,22.0,-5.0,-100.00,South,171,6.0,8.0,29,0.00,,,0.00,0.000000,,2013-01-07 05:33:00,
2013-01-06 22:42:00,22.0,-5.0,-100.00,South,171,6.0,8.0,29,0.00,,,0.00,0.000000,,2013-01-07 05:42:00,
2013-01-06 22:52:00,22.0,-5.0,-100.00,South,171,6.0,8.0,29,0.00,,,0.00,0.000000,,2013-01-07 05:52:00,
2013-01-06 23:22:00,21.0,-6.0,-100.00,South,178,6.0,8.0,30,0.00,,,0.00,0.000000,,2013-01-07 06:22:00,
2013-01-06 23:32:00,21.0,-6.0,-100.00,South,178,6.0,8.0,30,0.00,,,0.00,0.000000,,2013-01-07 06:32:00,
2013-01-06 23:42:00,21.0,-6.0,-100.00,South,178,6.0,8.0,30,0.00,,,0.00,0.000000,,2013-01-07 06:42:00,
2013-01-06 23:52:00,21.0,-6.0,-100.00,South,178,6.0,8.0,30,0.00,,,0.00,0.000000,,2013-01-07 06:52:00,